Waarnemingen

Advertentie
Mijn weer
Fehmarn, Duitsland (10055): temperatuur & dauwpunt: 05.12.2017 03:00:00 - 11.12.2017 03:00:00 (CET)Fehmarn, Duitsland (10055): temperatuur 5cm & temperatuur -5cm: 05.12.2017 03:00:00 - 11.12.2017 03:00:00 (CET)Fehmarn, Duitsland (10055): temperatuur -20cm & temperatuur -100cm: 05.12.2017 03:00:00 - 11.12.2017 03:00:00 (CET)Fehmarn, Duitsland (10055): windsnelheid & windstoten: 05.12.2017 03:00:00 - 11.12.2017 03:00:00 (CET)Fehmarn, Duitsland (10055): windrichting: 05.12.2017 03:00:00 - 11.12.2017 03:00:00 (CET)Fehmarn, Duitsland (10055): luchtdruk: 05.12.2017 03:00:00 - 11.12.2017 03:00:00 (CET)Fehmarn, Duitsland (10055): zicht: 05.12.2017 03:00:00 - 11.12.2017 03:00:00 (CET)Fehmarn, Duitsland (10055): Zonneschijnduur: 05.12.2017 03:00:00 - 11.12.2017 03:00:00 (CET)Fehmarn, Duitsland (10055): neerslag: 05.12.2017 03:00:00 - 11.12.2017 03:00:00 (CET)
Datum & Tijd tt [°C] td [°C] tt 5cm [°C] tt -5cm [°C] tt -20cm [°C] tt -100cm [°C] ff [km/u] ff [kn] fx [km/u] fx [kn] dd ppp [hPa] vv [km] sd [min] rr [mm]
11.12.2017 03:00:00 0,7 -1,6 0,4 0,5 2,4 7,4 29 15 37 20 O 980,4 20 0 0,0
11.12.2017 02:00:00 0,2 -1,5 0,0 0,5 2,4 7,4 25 14 35 19 O 979,8 9 0 0,1
11.12.2017 01:00:00 -0,2 -1,3 -0,4 0,5 2,5 7,4 23 12 40 22 OZO 980,2 3,8 0 0,0
11.12.2017 00:00:00 0,2 -2,4 -0,1 0,5 2,5 7,4 26 14 46 25 OZO 980,4 30 0 0,0
10.12.2017 23:00:00 0,3 -2,6 0,0 0,6 2,6 7,4 30 16 46 25 OZO 980,8 33 0 0,0
10.12.2017 22:00:00 0,3 -2,7 -0,2 0,6 2,7 7,4 30 16 42 23 OZO 981,1 46 0 0,0
10.12.2017 21:00:00 0,4 -2,5 -0,1 0,7 2,8 7,4 26 14 40 22 ZO 981,7 55 0 0,0
10.12.2017 20:00:00 0,7 -2,5 0,4 0,8 2,8 7,5 23 12 46 25 ZZO 982,3 47 0 0,0
10.12.2017 19:00:00 1,0 -2,3 0,6 0,9 2,9 7,5 26 14 39 21 ZZO 983,1 39 0 0,0
10.12.2017 18:00:00 0,9 -1,9 0,6 1,1 3,0 7,5 24 13 39 21 ZZO 983,8 35 0 0,0
10.12.2017 17:00:00 1,2 -1,5 0,9 1,3 3,0 7,5 22 12 36 19 ZZO 984,8 21 0 0,0
10.12.2017 16:00:00 1,4 -1,3 0,9 1,4 3,1 7,5 24 13 36 20 ZZO 985,5 35 0 0,0
10.12.2017 15:00:00 1,6 -2,1 1,3 1,6 3,1 7,5 20 11 32 17 Z 986,3 48 0 0,0
10.12.2017 14:00:00 1,4 -2,3 1,2 1,8 3,1 7,5 19 10 31 17 Z 987,9 36 0 0,0
10.12.2017 13:00:00 1,7 -1,5 1,5 2,0 3,1 7,5 18 10 32 17 Z 989,2 17 0 0,0
10.12.2017 12:00:00 1,5 -1,4 1,5 2,0 3,0 7,5 21 11 34 19 Z 990,4 18 3 0,0
10.12.2017 11:00:00 1,4 -1,2 1,3 1,6 3,1 7,5 21 12 39 21 Z 992,0 14 1 0,0
10.12.2017 10:00:00 1,6 -1,9 1,3 1,4 3,1 7,5 29 16 48 26 ZW 992,8 20 0 0,0
10.12.2017 09:00:00 1,8 -1,4 1,4 1,4 3,2 7,5 32 18 55 30 ZW 993,4 17 0 0,0
10.12.2017 08:00:00 1,9 -1,2 1,4 1,4 3,2 7,5 37 20 60 33 ZW 994,2 16 0 0,0
10.12.2017 07:00:00 1,9 -0,5 1,4 1,5 3,3 7,6 38 21 57 31 ZW 994,9 11 0 0,0
10.12.2017 06:00:00 2,1 -0,6 1,5 1,5 3,3 7,6 39 21 59 32 ZW 995,6 14 0 0,0
10.12.2017 05:00:00 2,0 -0,6 1,1 1,6 3,4 7,6 40 21 62 34 WZW 996,3 15 0 0,0
10.12.2017 04:00:00 2,1 -0,6 1,1 1,7 3,4 7,6 42 23 68 37 WZW 996,9 17 0 0,0
10.12.2017 03:00:00 2,1 0,5 1,4 1,8 3,4 7,6 38 20 59 32 WZW 997,8 18 0 0,0
10.12.2017 02:00:00 1,7 0,7 1,2 1,9 3,5 7,6 38 20 58 31 ZW 998,3 19 0 0,1
10.12.2017 01:00:00 2,1 0,3 1,5 2,0 3,5 7,6 39 21 54 29 WZW 999,2 51 0 0,0
10.12.2017 00:00:00 2,2 0,7 1,5 2,0 3,6 7,6 35 19 53 28 ZW 999,7 46 0 0,1
09.12.2017 23:00:00 2,1 0,9 1,6 1,9 3,6 7,6 32 18 49 26 WZW 1000,1 49 0 0,3
09.12.2017 22:00:00 1,7 1,0 1,2 2,0 3,7 7,6 36 20 61 33 WZW 1000,5 7 0 0,4
09.12.2017 21:00:00 2,8 1,0 2,1 1,9 3,8 7,6 32 17 50 27 WZW 1000,6 53 0 0,0
09.12.2017 20:00:00 2,9 0,6 1,5 1,9 3,9 7,6 39 21 56 30 WZW 1000,9 48 0 0,0
09.12.2017 19:00:00 3,6 1,3 2,0 2,3 3,9 7,6 41 22 54 29 WZW 1000,7 38 0 0,1
09.12.2017 18:00:00 3,7 1,1 2,9 2,3 4,0 7,6 35 19 60 33 WZW 1000,8 37 0 0,0
09.12.2017 17:00:00 3,8 0,9 3,1 2,5 4,1 7,7 46 25 59 32 W 1000,8 39 0 0,0
09.12.2017 16:00:00 4,3 1,3 3,0 2,9 4,1 7,7 46 25 63 34 W 1000,9 38 0 0,0
09.12.2017 15:00:00 4,4 0,2 3,9 3,3 4,1 7,7 54 29 68 37 W 1000,5 34 35 0,0
09.12.2017 14:00:00 5,1 1,0 4,4 3,7 4,0 7,7 49 26 59 32 W 1000,4 14 59 0,0
09.12.2017 13:00:00 5,2 2,5 5,0 3,8 3,9 7,7 41 22 53 29 W 1000,3 10 54 0,0
09.12.2017 12:00:00 4,8 1,8 4,5 3,5 3,8 7,7 45 25 58 31 W 1000,2 26 1 0,0
09.12.2017 11:00:00 4,5 2,0 4,0 3,1 3,7 7,7 48 26 61 33 W 999,8 14 15 0,0
09.12.2017 10:00:00 4,2 2,7 3,5 2,8 3,7 7,7 41 22 61 33 W 999,4 30 0 0,2
09.12.2017 09:00:00 3,6 2,3 2,9 2,4 3,7 7,7 45 25 55 30 W 999,0 27 0 0,0
09.12.2017 08:00:00 3,4 2,4 2,4 2,4 3,6 7,7 40 21 53 28 WZW 998,5 28 0 0,0
09.12.2017 07:00:00 3,1 2,2 2,2 2,4 3,6 7,7 40 21 55 30 WZW 998,2 26 0 0,0
09.12.2017 06:00:00 3,1 1,9 2,5 2,3 3,6 7,7 41 22 59 32 WZW 998,2 29 0 0,2
09.12.2017 05:00:00 2,9 1,6 2,3 2,0 3,6 7,7 40 22 57 31 WZW 998,2 6 0 0,0
09.12.2017 04:00:00 2,6 1,0 2,0 1,6 3,7 7,7 34 19 56 30 ZW 998,5 26 0 0,0
09.12.2017 03:00:00 2,4 0,5 1,4 1,4 3,8 7,7 37 20 56 30 ZW 998,9 35 0 0,0
09.12.2017 02:00:00 1,9 0,2 0,7 1,5 3,9 7,7 34 19 50 27 WZW 999,4 24 0 0,0
09.12.2017 01:00:00 2,2 0,5 1,6 1,9 4,0 7,7 39 21 56 30 WZW 999,9 25 0 0,0
09.12.2017 00:00:00 2,6 0,7 1,7 1,9 4,1 7,7 41 22 59 32 WZW 1000,1 27 0 0,0
08.12.2017 23:00:00 2,9 0,9 1,8 2,1 4,1 7,7 46 25 65 35 WZW 1000,1 39 0 0,0
08.12.2017 22:00:00 3,3 1,0 2,7 2,3 4,2 7,7 55 30 65 35 W 999,8 31 0 0,0
08.12.2017 21:00:00 3,0 1,1 2,0 2,1 4,3 7,7 45 25 62 34 WZW 1000,2 24 0 0,0
08.12.2017 20:00:00 3,2 1,0 2,0 2,2 4,4 7,7 41 22 60 32 WZW 1000,0 26 0 0,0
08.12.2017 19:00:00 3,5 1,4 2,2 2,4 4,5 7,7 43 23 58 31 WZW 999,4 24 0 0,0
08.12.2017 18:00:00 3,5 1,4 2,3 2,6 4,7 7,7 43 23 57 31 WZW 999,0 28 0 0,0
08.12.2017 17:00:00 3,5 1,3 2,2 2,8 4,8 7,7 37 20 51 27 WZW 999,0 34 0 0,0
08.12.2017 16:00:00 3,4 1,5 2,5 3,1 4,8 7,7 38 21 56 30 WZW 998,5 49 0 0,0
08.12.2017 15:00:00 3,3 1,9 2,5 3,5 4,9 7,7 40 22 53 28 WZW 998,2 42 0 0,0
08.12.2017 14:00:00 3,7 2,3 3,1 3,6 4,9 7,7 38 20 54 29 WZW 998,3 53 0 0,0
08.12.2017 13:00:00 3,4 2,1 3,0 3,6 5,0 7,7 41 22 54 29 WZW 998,4 61 0 0,0
08.12.2017 12:00:00 3,6 2,3 3,0 3,6 5,0 7,7 42 23 57 31 WZW 998,3 45 0 0,0
08.12.2017 11:00:00 3,2 1,8 2,6 3,6 5,1 7,7 33 18 51 28 WZW 998,5 60 0 0,0
08.12.2017 10:00:00 3,2 2,2 2,8 3,4 5,2 7,7 32 17 53 29 WZW 998,6 38 0 0,4
08.12.2017 09:00:00 3,0 2,0 2,4 3,6 5,3 7,7 40 22 53 29 WZW 998,2 40 0 0,0
08.12.2017 08:00:00 3,6 2,5 3,0 3,8 5,4 7,7 36 20 60 33 WZW 997,8 23 0 0,2
08.12.2017 07:00:00 4,6 2,2 3,8 3,9 5,5 7,7 47 26 68 37 W 997,8 39 0 0,1
08.12.2017 06:00:00 5,6 3,5 4,0 4,2 5,5 7,7 36 19 50 27 WZW 997,7 24 0 0,0
08.12.2017 05:00:00 5,8 4,1 4,2 4,4 5,6 7,7 26 14 60 33 WZW 997,3 19 0 0,3
08.12.2017 04:00:00 6,1 4,5 4,7 4,5 5,7 7,7 27 15 41 22 WZW 997,4 18 0 0,0
08.12.2017 03:00:00 6,3 4,7 5,0 4,8 5,7 7,7 26 14 45 25 WZW 997,6 17 0 0,0
08.12.2017 02:00:00 6,5 4,9 5,3 5,0 5,7 7,7 36 19 47 25 WZW 997,7 21 0 0,0
08.12.2017 01:00:00 6,6 5,2 5,6 5,1 5,8 7,7 29 16 44 24 WZW 997,6 16 0 0,0
08.12.2017 00:00:00 6,7 5,4 5,6 5,3 5,8 7,7 32 18 47 25 WZW 997,5 16 0 0,0
07.12.2017 23:00:00 6,4 5,6 5,7 5,4 5,7 7,7 28 15 46 25 ZW 997,6 13 0 0,0
07.12.2017 22:00:00 6,5 4,9 5,7 5,3 5,7 7,6 35 19 56 30 ZW 997,9 26 0 0,5
07.12.2017 21:00:00 6,3 5,3 5,6 5,2 5,7 7,6 35 19 53 28 ZW 998,5 7 0 0,5
07.12.2017 20:00:00 6,1 5,0 5,4 5,1 5,7 7,6 32 18 53 29 ZW 999,2 10 0 0,2
07.12.2017 19:00:00 5,6 4,5 5,0 5,0 5,8 7,6 29 16 49 26 ZW 999,9 6 0 0,1
07.12.2017 18:00:00 5,4 4,4 4,9 5,0 5,8 7,6 28 15 49 26 ZZW 1000,8 5 0 0,0
07.12.2017 17:00:00 6,0 3,7 5,5 5,1 5,8 7,6 27 15 59 32 ZZW 1001,8 13 0 0,0
07.12.2017 16:00:00 6,4 3,2 6,0 5,2 5,8 7,6 38 21 59 32 ZW 1002,4 16 0 0,0
07.12.2017 15:00:00 6,7 3,0 6,3 5,2 5,9 7,6 34 18 58 31 ZW 1003,6 21 0 0,0
07.12.2017 14:00:00 6,5 2,5 6,1 5,1 5,9 7,6 32 17 52 28 ZW 1004,8 22 0 0,0
07.12.2017 13:00:00 6,3 2,0 5,9 5,2 5,9 7,6 32 18 61 33 ZZW 1005,9 23 0 0,0
07.12.2017 12:00:00 6,4 2,1 6,3 5,3 5,9 7,6 37 20 58 31 ZW 1007,5 20 0 0,0
07.12.2017 11:00:00 6,3 2,0 6,0 5,1 6,0 7,6 25 13 54 29 ZZW 1009,0 22 0 0,0
07.12.2017 10:00:00 6,3 1,7 5,9 5,1 6,1 7,6 30 16 55 30 ZZW 1009,6 18 0 0,0
07.12.2017 09:00:00 6,5 2,1 6,0 5,2 6,1 7,6 32 17 57 31 ZW 1010,6 19 0 0,0
07.12.2017 08:00:00 6,8 2,2 6,2 5,3 6,2 7,6 39 21 61 33 ZW 1011,4 18 0 0,0
07.12.2017 07:00:00 7,3 3,0 6,7 5,6 6,2 7,6 38 20 56 31 ZW 1011,7 21 0 0,0
07.12.2017 06:00:00 7,5 4,0 6,9 5,8 6,3 7,6 34 18 50 27 ZW 1012,5 15 0 0,0
07.12.2017 05:00:00 7,7 4,4 7,2 5,9 6,3 7,6 32 17 47 25 ZW 1013,2 12 0 0,0
07.12.2017 04:00:00 7,7 4,7 7,2 6,0 6,3 7,6 29 15 45 25 ZW 1014,1 10 0 0,0
07.12.2017 03:00:00 7,8 4,9 7,3 6,1 6,3 7,6 28 15 40 22 ZW 1014,9 10 0 0,0
07.12.2017 02:00:00 8,0 5,0 7,4 6,1 6,3 7,6 30 16 43 23 WZW 1015,4 12 0 0,0
07.12.2017 01:00:00 8,0 4,8 7,4 6,1 6,4 7,5 26 14 49 26 WZW 1016,1 29 0 0,0
07.12.2017 00:00:00 8,4 4,6 7,7 6,2 6,4 7,5 41 22 53 29 WZW 1016,7 42 0 0,0
06.12.2017 23:00:00 8,3 4,9 7,6 6,3 6,4 7,5 32 18 50 27 WZW 1017,3 41 0 0,0
06.12.2017 22:00:00 8,2 5,3 7,6 6,3 6,4 7,5 36 20 49 26 WZW 1017,7 29 0 0,0
06.12.2017 21:00:00 8,3 5,6 7,7 6,4 6,4 7,5 37 20 49 26 WZW 1018,2 24 0 0,0
06.12.2017 20:00:00 8,1 6,1 7,7 6,5 6,4 7,5 37 20 51 27 WZW 1018,3 17 0 0,0
06.12.2017 19:00:00 8,0 6,4 7,6 6,5 6,4 7,5 41 22 55 30 W 1018,5 15 0 0,0
06.12.2017 18:00:00 8,2 6,3 7,8 6,5 6,3 7,5 42 23 55 30 W 1018,4 17 0 0,0
06.12.2017 17:00:00 8,3 6,0 7,8 6,5 6,3 7,5 46 25 58 31 W 1018,4 20 0 0,0
06.12.2017 16:00:00 8,3 6,0 7,9 6,5 6,3 7,5 44 24 59 32 W 1018,4 18 0 0,0
06.12.2017 15:00:00 8,3 5,8 7,9 6,6 6,2 7,5 48 26 61 33 W 1018,5 18 0 0,0
06.12.2017 14:00:00 8,3 5,9 8,0 6,6 6,2 7,5 50 27 63 34 W 1018,7 21 0 0,0
06.12.2017 13:00:00 8,2 6,3 7,9 6,5 6,1 7,5 47 25 60 33 W 1018,8 16 0 0,0
06.12.2017 12:00:00 8,1 6,1 7,8 6,4 6,1 7,5 49 27 60 33 W 1019,0 17 0 0,0
06.12.2017 11:00:00 7,9 5,5 7,5 6,2 6,1 7,5 48 26 64 35 W 1019,2 22 0 0,0
06.12.2017 10:00:00 7,8 5,3 7,4 6,1 6,1 7,5 53 28 65 35 W 1019,2 22 0 0,0
06.12.2017 09:00:00 7,7 5,5 7,2 6,0 6,0 7,5 49 26 63 34 W 1019,2 19 0 0,0
06.12.2017 08:00:00 7,6 5,5 7,2 6,0 6,0 7,5 44 24 61 33 W 1019,3 21 0 0,0
06.12.2017 07:00:00 7,5 5,7 7,0 6,0 6,0 7,5 43 23 59 32 W 1019,7 21 0 0,0
06.12.2017 06:00:00 7,4 5,6 6,8 5,9 6,0 7,5 46 25 58 32 W 1020,0 30 0 0,0
06.12.2017 05:00:00 7,2 5,6 6,5 6,0 6,0 7,5 48 26 61 33 W 1020,2 24 0 0,0
06.12.2017 04:00:00 6,9 6,4 6,4 6,0 6,0 7,5 45 24 68 37 W 1020,4 15 0 0,0
06.12.2017 03:00:00 7,1 6,2 6,5 6,0 6,0 7,5 52 28 67 36 W 1021,0 15 0 0,0
06.12.2017 02:00:00 7,3 6,1 6,7 5,9 6,0 7,5 51 28 72 39 W 1021,2 19 0 0,0
06.12.2017 01:00:00 7,4 6,1 6,8 6,0 6,0 7,5 48 26 60 32 W 1021,4 16 0 0,0
06.12.2017 00:00:00 7,5 5,7 7,0 5,9 6,0 7,5 48 26 62 34 W 1021,5 20 0 0,0
05.12.2017 23:00:00 7,6 5,8 7,1 6,2 6,0 7,5 49 26 64 34 W 1021,7 19 0 0,0
05.12.2017 22:00:00 7,5 6,5 7,1 6,1 6,0 7,5 47 26 72 39 W 1021,7 21 0 0,0
05.12.2017 21:00:00 7,4 6,5 6,8 6,2 6,0 7,5 50 27 66 36 W 1021,4 26 0 0,0
05.12.2017 20:00:00 7,5 6,8 7,0 6,3 6,0 7,5 43 23 61 33 W 1021,8 8 0 0,0
05.12.2017 19:00:00 7,9 6,5 7,5 6,2 6,0 7,5 51 28 63 34 W 1021,9 27 0 0,0
05.12.2017 18:00:00 7,8 6,2 7,2 6,2 6,0 7,5 49 27 63 34 W 1022,0 25 0 0,0
05.12.2017 17:00:00 7,8 6,2 7,4 6,3 5,9 7,5 48 26 57 31 W 1021,9 24 0 0,0
05.12.2017 16:00:00 7,9 6,3 7,6 6,5 5,9 7,5 49 26 63 34 W 1022,1 24 0 0,0
05.12.2017 15:00:00 8,0 6,4 7,7 6,5 5,8 7,5 43 23 64 34 W 1022,2 25 0 0,0
05.12.2017 14:00:00 7,9 6,3 7,5 6,6 5,8 7,5 45 24 61 33 W 1022,3 24 0 0,0
05.12.2017 13:00:00 8,0 5,9 7,4 6,6 5,7 7,5 46 25 54 29 W 1022,9 34 0 0,0
05.12.2017 12:00:00 7,5 6,5 7,2 6,6 5,5 7,5 42 23 51 27 W 1023,1 27 0 0,0
05.12.2017 11:00:00 7,4 7,0 7,2 6,4 5,4 7,5 41 22 50 27 W 1023,6 22 0 0,0
05.12.2017 10:00:00 7,2 6,9 6,9 6,0 5,3 7,5 41 22 52 28 W 1023,6 16 0 0,0
05.12.2017 09:00:00 7,2 6,6 6,8 5,8 5,3 7,5 39 21 51 27 W 1023,4 19 0 0,0
05.12.2017 08:00:00 7,3 6,5 6,7 5,8 5,2 7,5 38 21 50 27 W 1023,1 25 0 0,0
05.12.2017 07:00:00 7,5 6,3 7,0 5,8 5,1 7,5 40 21 50 27 W 1022,9 26 0 0,0
05.12.2017 06:00:00 7,5 6,6 6,8 5,7 5,0 7,5 40 21 48 26 W 1023,0 25 0 0,0
05.12.2017 05:00:00 7,3 6,9 6,9 5,6 4,9 7,5 34 18 42 23 W 1022,9 18 0 0,0
05.12.2017 04:00:00 7,3 6,7 6,9 5,4 4,7 7,5 34 18 39 21 W 1023,0 25 0 0,0
05.12.2017 03:00:00 7,1 6,9 6,8 5,1 4,6 7,5 28 15 35 19 W 1023,1 21 0 0,0

tt = temperatuur
td = dauwpunt
tt 5cm = temperatuur 5cm
tt -5cm = temperatuur -5cm
tt -20cm = temperatuur -20cm
tt -100cm = temperatuur -100cm
ff = windsnelheid
fx = windstoten
dd = windrichting
ppp = luchtdruk
vv = zicht
sd = Zonneschijnduur
rr = neerslag

Weerstations in de omgeving